Torna al catalogo

STARLINK-33723

AttivoComunicazioniVLEO
NORAD 63593·PAYLOAD·🇺🇸 United States

Lanciato Apr 14, 2025 da Cape Canaveral Space Force Station

Loading…

Prossimi Passaggi (prossime 24 ore)

TLE

AggiornatoSource: CelesTrak SupGP

Epoca: Sep 15, 2026, 02:23 UTC

1 63593C 25076AA  26258.09979167  .00039130  00000+0  14171-2 0  2586
2 63593  43.0028 331.8441 0001473 272.9147 316.6571 15.27564168    11

Traccia STARLINK-33723 in tempo reale con AllMySat

Download on the App Store